Temp
-7 -7 -7 -7 -7 -7 -7 -7 -8 -8 -8 -8 -8 -8 -8 -8 -7 -8 -8 -8 -8 -7 -7 -7 -7 -7 -7 -7 -7 -7 -7 -8 -7 -7 -7 -7 -7 -7 -7 -7 -7 -7 -7
-7 -7 -8 -7 -7 -7 -7 -8 -8 -8 -8 -8 -8 -8 -8 -7 -8 -8 -8 -8 -8 -8 -7 -7 -7 -7 -7 -8 -8 -8 -8 -8 -8 -8 -8 -7 -8 -8 -8 -8 -7 -8 -7
-8 -7 -7 -7 -7 -7 -8 -8 -8 -8 -8 -8 -8 -7 -7 -7 -7 -8 -8 -8 -8 -8 -8 -8 -8 -8 -8 -7 -7 -8 -8 -8 -8 -8 -8 -8 -8 -8 -8 -8 -8 -8 -8
-7 -8 -8 -8 -8 -8 -8 -8 -8 -8 -8 -8 -8 -8 -8 -8 -8 -8 -8 -8 -8 -8 -8 -8 -8 -8 -8 -8 -8 -8 -8 -8 -8 -8 -9 -8 -8 -8 -8 -8 -8 -8 -8
-8 -8 -8 -8 -8 -9 -8 -8 -8 -9 -9 -9 -9 -9 -8 -9 -9 -9 -8 -8 -8 -8 -8 -8 -9 -9 -9 -8 -8 -9 -9 -9 -9 -9 -9 -9 -8 -9 -9 -9 -9 -9 -9
-9 -9 -9 -9 -9 -9 -8 -8 -9 -9 -9 -9 -9 -9 -9 -9 -9 -9 -9 -9 -9 -9 -9 -9 -9 -9 -9 -9 -9 -9 -9 -9 -9 -9 -9 -9 -9 -9 -9 -9 -9 -9 -9
-9 -9 -9 -9 -9 -9 -9 -9 -9 -9 -9 -10 -10 -10 -10 -10 -10 -9 -9 -9 -9 -9 -9 -9 -9 -10 -10 -10 -10 -10 -9 -9 -9 -9 -9 -9 -9 -9 -9 -9 -9 -9 -9
-10 -10 -9 -9 -9 -9 -9 -9 -9 -9 -10 -10 -10 -11 -10 -10 -10 -10 -10 -10 -10 -9 -10 -10 -10 -10 -10 -10 -10 -10 -10 -10 -10 -9 -9 -9 -9 -9 -9 -9 -9 -9 -9
-10 -10 -10 -9 -9 -9 -9 -9 -9 -10 -10 -11 -11 -11 -11 -11 -10 -10 -10 -10 -10 -10 -10 -10 -10 -10 -10 -10 -10 -10 -10 -10 -10 -10 -10 -10 -10 -9 -9 -9 -9 -9 -9
-10 -10 -10 -10 -9 -9 -9 -9 -10 -10 -10 -11 -13 -12 -12 -11 -11 -11 -11 -11 -11 -11 -11 -11 -11 -11 -11 -11 -11 -11 -11 -11 -11 -10 -10 -10 -10 -10 -10 -10 -9 -9 -9
-10 -10 -10 -10 -10 -10 -10 -10 -10 -10 -11 -12 -12 -11 -11 -11 -12 -11 -11 -11 -11 -11 -11 -11 -11 -11 -11 -11 -11 -11 -11 -11 -11 -11 -10 -10 -10 -10 -10 -9 -9 -9 -9
-10 -10 -11 -10 -10 -10 -10 -10 -11 -11 -11 -12 -11 -11 -11 -11 -12 -12 -12 -12 -12 -11 -12 -12 -12 -12 -11 -11 -11 -11 -12 -12 -11 -11 -11 -10 -10 -10 -10 -9 -9 -9 -9
-11 -11 -11 -11 -11 -10 -10 -11 -11 -10 -11 -10 -11 -11 -11 -11 -11 -11 -11 -12 -12 -12 -12 -12 -12 -11 -12 -11 -11 -11 -12 -11 -11 -11 -11 -11 -11 -10 -10 -10 -9 -9 -9
-11 -11 -11 -11 -11 -11 -11 -11 -12 -11 -11 -10 -11 -11 -11 -11 -11 -11 -11 -11 -11 -11 -12 -12 -12 -12 -12 -12 -12 -12 -12 -12 -12 -12 -11 -12 -11 -11 -11 -10 -10 -10 -10
-11 -12 -11 -12 -12 -12 -12 -12 -12 -12 -11 -11 -11 -11 -12 -12 -12 -12 -12 -12 -12 -12 -12 -12 -12 -12 -12 -12 -12 -12 -12 -12 -12 -12 -12 -12 -12 -12 -12 -11 -11 -11 -10
-11 -11 -11 -12 -12 -12 -12 -12 -12 -12 -12 -11 -11 -11 -11 -11 -12 -12 -12 -12 -12 -12 -12 -12 -12 -12 -13 -12 -12 -12 -13 -13 -13 -13 -12 -12 -12 -12 -12 -12 -12 -12 -12
-12 -13 -12 -12 -12 -12 -13 -12 -12 -13 -13 -13 -13 -12 -12 -12 -12 -12 -13 -12 -13 -13 -13 -12 -13 -12 -13 -12 -12 -13 -13 -13 -13 -13 -13 -13 -12 -12 -12 -13 -13 -12 -13
-12 -13 -13 -12 -12 -13 -13 -13 -13 -14 -14 -14 -13 -13 -12 -13 -12 -13 -13 -13 -13 -13 -13 -13 -13 -13 -13 -13 -13 -13 -13 -13 -13 -13 -13 -14 -13 -13 -13 -13 -13 -13 -13
-13 -13 -13 -13 -14 -14 -14 -14 -14 -14 -13 -13 -13 -14 -14 -14 -13 -13 -13 -13 -14 -13 -14 -13 -13 -13 -13 -13 -13 -14 -13 -14 -14 -13 -14 -14 -14 -14 -14 -14 -14 -14 -14
-13 -13 -14 -13 -14 -14 -14 -14 -14 -14 -14 -13 -13 -14 -14 -14 -14 -14 -14 -14 -14 -14 -14 -14 -14 -14 -14 -14 -14 -15 -14 -15 -14 -14 -14 -14 -14 -14 -15 -14 -14 -14 -14
-13 -14 -14 -14 -14 -14 -14 -14 -14 -14 -14 -14 -14 -14 -14 -14 -14 -14 -14 -14 -14 -14 -14 -14 -15 -14 -15 -15 -14 -15 -15 -15 -15 -15 -15 -15 -14 -15 -14 -15 -15 -15 -14
-14 -14 -14 -15 -14 -14 -14 -14 -14 -15 -15 -14 -14 -15 -14 -15 -15 -15 -15 -14 -15 -15 -15 -15 -15 -15 -15 -15 -15 -15 -16 -15 -15 -16 -16 -15 -15 -15 -15 -15 -16 -15 -15
-14 -14 -15 -15 -14 -14 -15 -14 -15 -15 -15 -15 -15 -15 -15 -15 -15 -15 -15 -15 -15 -15 -15 -15 -16 -16 -17 -16 -16 -16 -16 -17 -16 -16 -16 -16 -16 -16 -16 -16 -16 -16 -16
-14 -15 -15 -15 -15 -15 -15 -15 -15 -15 -15 -15 -15 -15 -15 -15 -15 -16 -16 -16 -16 -16 -16 -16 -16 -17 -18 -17 -17 -18 -17 -18 -19 -19 -17 -17 -17 -17 -17 -17 -16 -17 -16
-15 -16 -15 -15 -15 -15 -15 -15 -15 -15 -15 -15 -16 -16 -16 -16 -16 -17 -17 -17 -17 -17 -17 -17 -17 -18 -18 -18 -19 -19 -18 -19 -19 -19 -20 -20 -20 -19 -18 -19 -18 -18 -18
-16 -16 -16 -16 -16 -16 -16 -16 -16 -16 -16 -17 -17 -17 -17 -17 -17 -17 -18 -18 -18 -18 -18 -18 -18 -19 -19 -19 -19 -19 -19 -19 -19 -19 -20 -20 -20 -20 -20 -21 -21 -21 -21
Height
5885 5886 5884 5883 5883 5882 5882 5883 5883 5884 5884 5885 5886 5886 5886 5887 5887 5888 5889 5889 5889 5890 5891 5891 5890 5891 5892 5891 5892 5891 5892 5891 5891 5892 5892 5893 5894 5893 5894 5895 5895 5895 5896
5883 5883 5883 5882 5882 5883 5881 5882 5882 5882 5882 5882 5883 5883 5883 5884 5884 5884 5884 5884 5884 5885 5885 5887 5887 5888 5888 5888 5889 5889 5890 5890 5890 5890 5890 5891 5892 5891 5891 5892 5893 5893 5894
5881 5881 5881 5881 5881 5881 5880 5879 5878 5879 5879 5879 5879 5880 5881 5881 5881 5881 5880 5881 5882 5883 5883 5882 5883 5884 5885 5886 5886 5885 5886 5886 5886 5886 5886 5888 5887 5888 5888 5889 5889 5890 5891
5881 5880 5880 5880 5879 5878 5878 5877 5876 5875 5875 5876 5876 5877 5876 5876 5877 5877 5877 5878 5878 5878 5880 5881 5880 5881 5882 5882 5883 5883 5881 5881 5881 5882 5882 5881 5886 5884 5884 5884 5885 5886 5887
5882 5880 5879 5878 5877 5876 5876 5874 5874 5873 5872 5873 5873 5873 5873 5872 5873 5874 5873 5873 5873 5874 5874 5875 5876 5876 5875 5876 5876 5876 5876 5876 5876 5876 5876 5875 5878 5877 5879 5880 5880 5881 5882
5881 5878 5878 5876 5875 5873 5873 5872 5872 5870 5871 5871 5871 5869 5868 5868 5868 5867 5868 5869 5870 5870 5871 5871 5870 5871 5871 5872 5872 5871 5872 5872 5870 5871 5870 5869 5874 5872 5873 5874 5875 5875 5876
5880 5878 5877 5875 5874 5872 5869 5868 5868 5867 5867 5867 5865 5864 5864 5864 5863 5864 5864 5864 5864 5864 5865 5866 5867 5868 5868 5867 5866 5866 5866 5866 5865 5866 5864 5863 5867 5866 5866 5867 5868 5869 5869
5880 5877 5875 5873 5871 5869 5866 5863 5862 5862 5862 5861 5861 5861 5861 5861 5861 5860 5860 5860 5860 5860 5861 5861 5861 5860 5860 5860 5860 5861 5860 5861 5860 5859 5858 5859 5859 5859 5859 5860 5861 5862 5863
5879 5876 5873 5871 5867 5864 5861 5858 5857 5856 5855 5855 5856 5856 5857 5857 5857 5856 5856 5856 5856 5855 5855 5855 5854 5854 5853 5852 5853 5853 5852 5852 5852 5852 5851 5853 5852 5852 5852 5852 5853 5854 5854
5876 5874 5871 5868 5865 5861 5859 5856 5854 5852 5852 5850 5851 5853 5853 5853 5852 5850 5850 5850 5850 5849 5849 5849 5848 5848 5847 5847 5847 5846 5845 5846 5845 5844 5843 5843 5845 5843 5844 5844 5844 5845 5846
5877 5873 5869 5866 5863 5861 5857 5855 5852 5851 5849 5848 5849 5849 5849 5847 5846 5844 5846 5844 5844 5843 5843 5842 5842 5840 5840 5840 5841 5840 5839 5838 5836 5835 5834 5834 5836 5836 5835 5836 5836 5837 5838
5874 5872 5868 5865 5861 5858 5855 5853 5851 5849 5847 5844 5846 5845 5843 5842 5840 5838 5840 5838 5837 5836 5835 5834 5833 5831 5833 5829 5830 5831 5831 5829 5828 5825 5827 5825 5827 5827 5827 5827 5828 5830 5828
5871 5868 5865 5862 5859 5855 5852 5849 5848 5846 5843 5841 5840 5840 5839 5838 5835 5833 5830 5831 5828 5827 5826 5826 5823 5824 5824 5823 5822 5823 5822 5821 5819 5818 5819 5817 5819 5818 5819 5819 5820 5820 5819
5868 5865 5861 5858 5855 5851 5849 5846 5844 5843 5840 5838 5836 5836 5834 5832 5828 5827 5824 5822 5820 5818 5820 5817 5816 5814 5813 5814 5814 5814 5814 5812 5811 5809 5808 5810 5809 5809 5809 5809 5810 5810 5810
5863 5860 5857 5853 5850 5847 5844 5842 5840 5838 5836 5834 5831 5830 5826 5825 5821 5819 5817 5813 5812 5809 5810 5808 5807 5805 5804 5804 5805 5806 5804 5802 5802 5801 5797 5802 5799 5798 5797 5797 5799 5800 5800
5857 5854 5852 5848 5845 5843 5839 5837 5833 5831 5828 5826 5823 5819 5818 5815 5812 5810 5807 5805 5804 5801 5799 5798 5798 5797 5796 5795 5794 5794 5794 5792 5791 5790 5788 5787 5789 5788 5788 5787 5787 5787 5788
5850 5848 5845 5842 5838 5835 5832 5828 5824 5821 5818 5815 5813 5810 5808 5805 5802 5799 5798 5795 5794 5791 5791 5790 5789 5787 5786 5784 5783 5783 5781 5781 5778 5778 5778 5776 5775 5777 5776 5775 5776 5776 5776
5844 5840 5837 5834 5832 5828 5824 5819 5816 5812 5809 5806 5803 5800 5798 5794 5792 5790 5787 5784 5782 5781 5780 5778 5776 5774 5773 5773 5771 5770 5767 5768 5767 5766 5767 5766 5763 5759 5766 5765 5764 5763 5763
5836 5833 5829 5826 5823 5819 5815 5810 5807 5803 5799 5795 5791 5789 5786 5784 5781 5779 5776 5774 5771 5770 5768 5766 5763 5761 5760 5760 5758 5755 5755 5753 5753 5752 5754 5754 5752 5751 5747 5752 5751 5751 5750
5828 5824 5821 5818 5814 5810 5806 5801 5798 5794 5790 5785 5783 5779 5776 5772 5770 5767 5764 5762 5760 5758 5756 5753 5750 5748 5747 5745 5744 5744 5742 5742 5741 5739 5739 5738 5737 5737 5733 5733 5735 5737 5737
5819 5815 5812 5809 5805 5800 5796 5793 5789 5784 5780 5775 5772 5769 5766 5761 5758 5754 5752 5748 5747 5745 5742 5739 5737 5734 5733 5731 5732 5732 5731 5731 5729 5724 5724 5725 5724 5719 5719 5719 5718 5720 5723
5811 5805 5802 5799 5794 5792 5786 5783 5780 5774 5769 5764 5760 5755 5754 5751 5747 5742 5740 5737 5734 5732 5730 5729 5725 5723 5720 5719 5717 5716 5714 5713 5712 5712 5711 5708 5707 5704 5706 5705 5704 5703 5706
5803 5798 5793 5789 5785 5782 5778 5773 5769 5762 5757 5753 5747 5743 5739 5736 5733 5730 5727 5724 5721 5720 5718 5716 5715 5712 5710 5709 5707 5703 5703 5700 5698 5699 5695 5692 5692 5691 5691 5690 5689 5689 5690
5796 5790 5786 5780 5776 5771 5766 5760 5756 5750 5744 5739 5734 5731 5726 5722 5718 5714 5712 5708 5706 5705 5703 5701 5701 5700 5701 5699 5697 5695 5693 5693 5689 5688 5684 5683 5678 5677 5677 5674 5674 5674 5676
5787 5783 5778 5772 5767 5761 5755 5750 5744 5737 5731 5725 5719 5714 5710 5706 5703 5700 5697 5694 5692 5690 5689 5688 5688 5688 5689 5690 5691 5690 5688 5685 5684 5683 5680 5677 5672 5668 5667 5665 5663 5663 5661
5779 5775 5768 5762 5757 5750 5744 5737 5731 5725 5719 5713 5707 5702 5697 5693 5689 5686 5683 5680 5678 5677 5676 5676 5676 5677 5679 5680 5681 5682 5681 5681 5680 5678 5676 5673 5669 5664 5661 5658 5655 5653 5650
Wind_Speed
4 4 7 9 11 12 12 12 12 13 13 14 16 18 19 18 18 16 16 16 16 17 17 16 16 16 16 16 16 16 15 14 14 14 14 14 13 14 15 14 15 15 15
8 8 8 9 11 10 11 12 12 13 13 14 17 19 20 20 20 20 20 20 20 20 20 20 19 19 19 18 17 16 16 17 18 18 17 17 17 18 18 18 18 18 17
5 6 10 11 12 13 12 11 13 14 17 19 21 22 22 22 23 23 22 22 22 22 21 20 20 20 20 21 21 20 19 20 20 21 21 21 21 21 22 23 22 22 22
5 3 4 8 10 14 15 14 15 15 17 20 21 22 23 23 23 23 23 23 24 23 23 23 23 24 24 24 24 24 23 24 24 24 24 26 20 25 25 25 25 26 25
3 3 5 8 8 10 14 17 18 19 19 19 20 22 23 23 24 24 26 27 27 27 27 27 27 28 27 28 29 29 29 28 28 28 28 29 25 29 28 28 28 28 27
3 5 8 11 12 13 17 19 21 22 22 23 25 26 27 28 28 30 30 29 30 30 31 30 31 31 30 30 31 31 30 30 31 30 32 32 28 31 30 30 31 32 31
8 7 7 10 12 15 19 23 24 26 26 27 28 29 29 30 32 31 32 31 31 33 33 33 33 32 33 32 33 32 32 33 34 32 34 35 30 33 32 33 33 34 35
11 9 9 10 12 15 20 25 24 28 29 30 30 30 31 30 31 31 32 32 33 33 32 31 31 30 30 31 32 32 32 32 33 32 33 33 33 34 33 33 33 34 35
11 10 9 8 9 12 12 13 19 27 31 31 29 27 26 27 29 30 30 31 32 33 33 33 33 33 34 35 35 35 35 36 36 36 37 36 38 37 38 38 37 38 38
18 17 14 12 10 13 13 12 16 23 20 30 26 23 26 30 31 32 33 34 34 34 35 34 35 37 38 38 37 36 34 35 36 37 36 35 37 37 38 40 39 39 39
22 20 19 17 14 13 14 12 9 17 12 14 19 22 28 28 30 33 31 34 33 32 35 36 37 38 38 39 38 37 35 34 34 36 35 35 35 36 36 36 38 39 40
27 22 19 19 20 19 16 14 9 10 17 19 18 24 28 28 31 34 30 33 34 36 39 39 41 42 40 43 38 34 34 37 39 39 38 40 38 38 38 40 39 38 39
26 26 24 21 20 18 18 16 16 18 19 23 27 26 31 32 34 34 35 36 39 41 41 41 40 44 42 42 41 37 37 40 41 44 42 44 44 43 42 41 41 41 42
29 26 26 24 23 23 18 15 16 18 21 25 30 31 35 35 38 40 42 44 43 44 43 44 43 42 45 45 44 42 44 47 45 46 47 45 46 45 44 44 45 43 44
32 28 28 27 24 22 20 22 26 27 30 29 28 30 32 33 37 38 41 44 45 45 43 44 45 48 50 45 43 43 44 46 47 47 49 47 46 46 45 45 45 46 47
31 29 27 23 23 22 30 31 34 36 33 32 32 35 38 41 43 44 44 46 48 48 48 49 47 51 51 49 48 48 51 51 52 52 54 50 45 49 51 48 48 49 50
32 30 27 29 33 32 35 39 36 35 38 35 35 39 43 46 48 46 51 50 50 52 49 50 50 53 56 54 55 56 53 54 53 55 58 57 56 51 52 50 49 49 48
33 33 32 30 33 36 37 36 35 37 39 41 41 42 44 46 48 51 53 53 55 57 55 57 50 49 46 51 48 55 58 55 59 58 61 58 58 56 53 49 50 50 50
35 34 35 35 34 36 37 37 37 38 39 40 42 45 48 50 53 55 56 55 54 56 57 60 64 57 56 63 65 62 62 61 61 64 61 58 59 54 58 55 56 58 55
39 39 34 34 38 37 36 37 38 39 40 41 41 44 45 49 51 53 55 55 58 57 57 60 64 70 64 62 60 60 60 59 62 59 61 65 65 61 58 59 57 57 55
39 38 33 34 40 41 40 41 41 42 43 44 43 43 46 49 50 52 53 55 55 57 58 59 60 63 65 65 59 60 58 58 60 61 61 62 64 61 61 61 61 58 57
41 32 32 37 37 40 42 42 42 43 45 47 48 50 50 50 52 54 55 57 58 57 58 58 59 61 64 65 65 63 60 62 63 61 62 62 60 61 61 59 56 57 55
38 38 34 36 42 44 44 46 46 46 48 48 49 50 52 53 55 56 57 56 57 57 58 59 59 57 57 62 62 62 59 60 60 60 61 59 56 54 55 53 48 47 46
38 36 39 45 46 48 48 46 46 47 47 48 49 49 49 50 50 51 52 53 55 56 57 58 57 54 46 50 51 53 54 49 36 38 50 50 49 48 46 47 49 48 47
34 45 43 46 47 48 48 46 47 49 51 52 52 51 49 48 47 48 49 50 50 51 52 53 54 50 47 44 41 35 36 36 34 27 27 26 34 38 44 40 43 40 41
52 45 45 46 47 46 45 47 48 48 48 47 47 47 48 49 48 46 45 44 44 42 42 42 43 40 39 39 38 34 34 29 29 27 29 28 29 33 36 32 34 31 28
Wind_Direction
210 241 231 220 212 205 208 212 221 222 223 224 221 219 222 225 228 232 234 236 239 244 250 253 254 256 256 258 260 261 263 266 267 268 270 268 266 263 263 260 256 253 253
225 236 252 237 227 216 216 220 227 236 236 237 238 236 230 232 232 233 236 238 239 240 241 246 249 251 252 255 255 257 259 262 264 263 262 263 265 264 262 261 259 258 257
227 237 240 241 236 222 216 216 218 225 231 234 236 239 241 242 243 243 242 244 245 247 247 246 248 252 254 257 258 259 261 264 265 266 265 258 265 263 264 267 268 267 266
266 249 251 241 229 229 218 222 226 227 228 233 236 236 236 237 240 242 244 245 247 247 250 253 253 254 256 255 256 256 254 254 254 258 259 263 258 266 267 266 267 266 264
302 286 271 268 254 247 240 233 237 235 236 235 236 237 237 236 240 244 244 245 246 247 246 247 248 248 247 249 249 247 247 248 250 250 252 256 247 260 261 263 263 263 263
295 272 261 257 260 259 258 249 241 242 241 242 242 238 240 241 240 240 243 247 252 252 250 248 247 247 247 247 250 252 254 254 253 252 256 257 262 260 260 260 261 263 263
323 308 281 278 274 270 270 263 252 246 243 243 245 245 244 245 248 250 251 251 249 249 249 250 253 255 257 257 257 257 257 258 259 259 259 257 258 257 257 258 260 263 263
350 325 304 290 282 276 278 268 257 251 242 242 244 248 251 252 253 252 252 253 255 258 260 263 265 263 262 263 263 263 264 264 263 262 263 263 263 262 260 259 257 258 259
336 335 329 302 294 289 295 296 265 248 247 245 243 247 250 251 254 259 263 264 266 266 266 267 267 267 266 265 265 267 267 268 269 270 268 268 264 264 264 261 259 259 258
339 325 316 327 324 313 318 308 280 256 262 257 240 245 252 261 262 263 265 269 271 274 273 273 272 272 272 272 272 271 272 274 276 275 271 274 273 271 269 265 262 259 259
347 328 316 305 312 319 320 316 313 266 263 251 237 247 256 260 265 268 273 275 275 275 278 278 277 274 273 274 274 274 273 274 275 276 276 273 272 274 273 271 268 267 264
333 337 307 299 297 301 308 310 303 256 251 218 254 259 261 262 262 267 267 271 270 271 275 275 276 274 274 274 276 270 272 274 276 275 275 275 273 272 271 272 271 269 267
329 324 320 303 294 304 303 302 298 288 272 248 260 266 274 275 273 271 273 271 271 273 272 273 274 268 269 269 270 270 270 270 273 274 274 276 275 274 275 272 270 267 266
312 312 316 298 290 298 299 303 303 296 287 267 268 262 266 270 273 273 273 276 276 275 273 275 274 272 269 270 270 268 270 271 270 272 272 273 275 275 274 274 274 271 270
307 308 311 300 287 289 288 301 300 299 291 286 278 264 268 275 273 273 271 272 273 274 273 272 271 273 272 270 270 270 270 271 274 275 278 273 274 276 273 275 276 274 271
304 301 303 299 298 281 301 301 297 294 290 284 278 270 262 264 267 269 269 268 271 271 268 271 273 276 273 273 272 273 273 277 277 274 275 279 280 281 279 278 279 276 275
298 294 294 291 289 294 297 296 293 289 285 277 270 263 263 263 263 268 271 269 270 270 271 275 269 274 277 274 269 271 275 276 279 279 280 282 281 282 279 279 279 280 279
295 294 293 294 294 292 291 291 290 288 281 277 272 270 263 263 265 266 271 269 269 271 273 272 275 266 272 270 272 273 273 272 276 276 276 281 284 284 277 273 277 281 281
294 293 292 291 294 291 292 291 289 285 282 280 277 273 270 270 270 270 271 272 274 272 273 274 277 276 269 273 276 278 277 280 281 282 278 281 282 281 282 279 277 278 280
295 289 293 285 288 290 292 288 292 290 286 283 282 278 273 272 272 273 274 273 271 270 275 273 275 279 272 283 278 286 279 283 283 283 282 285 287 287 288 288 285 282 281
290 283 281 286 292 292 294 295 294 291 289 286 284 279 276 277 277 276 276 275 275 276 277 278 281 280 281 283 284 283 282 281 284 288 288 285 285 288 289 289 287 284 280
292 282 287 293 297 297 297 295 293 291 289 288 287 282 281 276 273 274 275 274 275 276 277 279 280 281 282 284 285 287 291 289 289 288 287 288 290 289 289 287 284 282 278
297 302 300 300 301 298 297 295 293 290 289 288 285 283 281 277 274 274 273 273 274 274 274 275 277 280 282 282 286 289 291 291 291 288 291 294 292 291 289 287 287 281 278
296 307 304 300 300 299 298 298 297 295 292 290 289 286 284 282 281 278 277 276 275 275 275 275 277 279 280 283 286 290 292 297 300 301 297 295 296 295 295 293 290 287 282
302 319 302 298 298 297 297 297 298 297 296 296 295 293 291 289 287 286 284 283 280 278 276 274 275 277 279 278 282 288 287 292 297 297 299 302 302 303 300 297 291 289 281
312 309 302 299 301 301 303 302 301 300 299 297 295 295 294 292 290 288 285 283 281 280 278 276 276 275 276 276 276 277 281 282 283 288 291 294 293 294 295 295 298 288 263